Meteo Giornale » Osservazioni meteo Italia » Bergamo-Orio Al Serio

ore: 16:50 - Osservazioni Meteo Bergamo-Orio Al Serio
Lat. 45° 40' N Lon. 9° 42' E Alt. 238 metri s.l.m.

nuvoloso Europe/Rome

20 °C

Nuvoloso

Temp. 24 Ore

14 °C

24 °C

Nord/Nord-Est

18.5 Km/h

Dew point 10 °C

Umidità 52 %

Visibilità  10 Km

Il sole sorge alle ore 05:41

Il sole tramonta alle ore 20:54

Data e Ora Cielo e Fenomeni T °C DP °C Um. % Pres. hPa Vis. km Vento km/h
Oggi h: 16:50 nuvoloso Nuvoloso 20 10 52 1013 10 N/NE 18.5
Oggi h: 16:20 nuvoloso Nuvoloso 20 10 52 1013 10 N/NE 24
Oggi h: 15:50 nuvoloso Nuvoloso 20 11 56 1014 10 NE 25.9
Oggi h: 15:20 nuvoloso Nuvoloso 21 10 49 1014 10 N/NE 31.5
Oggi h: 14:50 nuvoloso Nuvoloso 23 12 49 1014 10 N 7.4
Oggi h: 14:20 nuvoloso Nuvoloso 24 11 43 1014 10 SE 9.3
Oggi h: 13:50 nuvoloso Nuvoloso 24 12 47 1015 10 N 7.4
Oggi h: 13:20 poco_nuvoloso Poco Nuvoloso 23 12 49 1015 10 N 11.1
Oggi h: 12:50 poco_nuvoloso Poco Nuvoloso 23 11 46 1015 10 N 5.5
Oggi h: 12:20 poco_nuvoloso Poco Nuvoloso 22 11 49 1016 10 S/SO 11.1
Oggi h: 11:50 poco_nuvoloso Poco Nuvoloso 22 11 49 1016 10 S/SO 7.4
Oggi h: 11:20 poco_nuvoloso Poco Nuvoloso 21 11 52 1016 10 N 3.7
Oggi h: 10:50 poco_nuvoloso Poco Nuvoloso 20 13 64 1016 10 NO 7.4
Oggi h: 10:20 nuvoloso Nuvoloso 19 13 68 1016 10 N/NO 9.3
Oggi h: 09:50 nuvoloso Nuvoloso 19 13 68 1016 10 N 11.1
Oggi h: 09:20 molto_nuvoloso Molto Nuvoloso 18 14 77 1016 10 N 5.5
Oggi h: 08:50 molto_nuvoloso Molto Nuvoloso 17 13 77 1016 10 N 13
Oggi h: 08:20 coperto_pioggia Pioggia Debole 15 12 82 1016 10 N 11.1
Oggi h: 07:50 molto_nuvoloso Rovescio nelle Vicinanze 15 12 82 1016 10 NE 16.7
Oggi h: 07:20 nuvoloso Nuvoloso 15 12 82 1016 10 N 7.4
Oggi h: 06:50 molto_nuvoloso Molto Nuvoloso 15 11 76 1016 10 N 9.3
Oggi h: 06:20 molto_nuvoloso Molto Nuvoloso 15 12 82 1016 10 N/NE 7.4
Oggi h: 05:50 molto_nuvoloso Molto Nuvoloso 14 12 87 1016 10 N 5.5
Oggi h: 05:20 molto_nuvoloso Molto Nuvoloso 14 11 82 1016 10 N 7.4
Oggi h: 04:50 molto_nuvoloso Molto Nuvoloso 15 11 76 1016 10 N 5.5
Oggi h: 04:20 molto_nuvoloso Molto Nuvoloso 15 11 76 1016 10 NE 13
Oggi h: 03:50 molto_nuvoloso Molto Nuvoloso 15 11 76 1016 10 NE 13
Oggi h: 03:20 molto_nuvoloso Molto Nuvoloso 15 11 76 1016 10 NE 9.3
Oggi h: 02:50 nuvoloso Nuvoloso 15 11 76 1016 10 N/NE 7.4
Oggi h: 02:20 nuvoloso Nuvoloso 14 11 82 1016 10 N/NE 9.3
Oggi h: 01:50 molto_nuvoloso Molto Nuvoloso 14 11 82 1016 10 NE 9.3
Oggi h: 01:20 molto_nuvoloso Molto Nuvoloso 14 12 87 1017 10 NE 11.1
Oggi h: 00:50 molto_nuvoloso Molto Nuvoloso 14 12 87 1017 10 N/NE 7.4
Oggi h: 00:20 molto_nuvoloso Molto Nuvoloso 15 12 82 1017 10 N 11.1
Ieri h: 23:50 nuvoloso Nuvoloso 14 12 87 1017 10 N/NO 11.1
Ieri h: 23:20 nuvoloso Nuvoloso 15 12 82 1017 10 N/NO 13
Ieri h: 22:50 nuvoloso Nuvoloso 15 12 82 1017 10 N/NO 13
Ieri h: 22:20 nuvoloso Nuvoloso 15 12 82 1017 10 N 11.1
Ieri h: 21:50 molto_nuvoloso Molto Nuvoloso 15 13 87 1016 10 N 16.7
Ieri h: 21:20 nuvoloso_temporali Temporale con Pioggia 15 13 87 1016 6 N/NO 14.8
Ieri h: 20:50 coperto_temporali Temporale 17 12 72 1016 10 N/NO 9.3
Ieri h: 20:20 nuvoloso_temporali Temporale con Pioggia Debole 15 13 87 1016 10 NO 13
Ieri h: 19:50 nuvoloso_temporali Temporale con Pioggia Debole 16 13 82 1015 10 N 20.3
Ieri h: 19:20 nuvoloso_temporali Temporale con Pioggia Debole 16 13 82 1016 10 N 9.3
Ieri h: 18:50 nuvoloso_piovaschi Rovescio di Pioggia 16 13 82 1015 10 NO 20.3
Ieri h: 18:20 nuvoloso_temporali Temporale con Pioggia Debole 16 13 82 1015 10 N/NO 16.7
Ieri h: 17:50 nuvoloso_temporali Temporale con Pioggia Debole 16 13 82 1015 8 N 20.3